Content
SEND FEEDBACK

Daily
Averages
Monthly
Summary
United States of America

BOSTON, MASSACHUSETTS


Home > North America > United States > Massachusetts
Elevation: 1 meter     Latitude: 42 22N     Longitude: 071 02W

WEATHER
 
SELECT A DAY
Number of Records: 205,467;   Date Range: 1/1/95 - 10/24/14
 
SHARE

PRINT THIS DATA

[ ← Previous Day ]
WEATHER ALMANAC - 25 FEBRUARY, 2013
[ Next Day → ]
[ °F ]   °C
Weather ElementAverageHighLow
Temperature0.6 °C4.4 °C (3:54 pm)-2 °C (1:20 am)
Dewpoint-2.4 °C-1.1 °C (6:54 pm)-3.9 °C (8:54 am)
Humidity80.9 %100 % (1:20 am)62 % (4:54 pm)
Barometer1019 hPa1024.4 hPa (11:54 pm)1013.5 hPa (1:20 am)
Wind Speed11.7 km/h16.7 km/h (1:54 am)
Weather ElementAverage
Visibility15.1 km
Wind DirectionSSW (207.9 °)

Weather ElementTotal
Precipitation---
Heating Degree Days17.2 (Base 18.3)
Averaged from 29 records on 25 February, 2013
WEATHER CONDITIONS BREAKOUT
WIND DIRECTION BREAKOUT
WEATHER BY HOUR - 25 FEBRUARY, 2013
[ °F ]   °C
Local TimeTemperatureDewpointHumidityBarometerVisibilityWind DirectionWind SpeedGust SpeedPrecipitationEventsConditions
1:20 AM-2 °C-2 °C100 %1013.5 hPa9.7 kmNNW (340°)13 km/h0 mmSnowLight Snow
1:54 AM-1.7 °C-2.2 °C96 %1013.5 hPa9.7 kmNNW (330°)16.7 km/h0 mmSnowLight Snow
2:14 AM-2 °C-2 °C100 %1013.9 hPa8 kmNNW (340°)13 km/h0 mmSnowLight Snow
2:32 AM-2 °C-2 °C100 %1013.9 hPa11.3 kmNNW (340°)13 km/h0 mmOvercast
2:54 AM-1.7 °C-2.8 °C92 %1013.9 hPa16.1 kmNNW (330°)14.8 km/h0 mmOvercast
3:08 AM-2 °C-3 °C93 %1014.2 hPa16.1 kmNNW (340°)13 km/hOvercast
3:54 AM-1.7 °C-2.8 °C92 %1014.6 hPa16.1 kmNNW (340°)13 km/hOvercast
4:54 AM-1.7 °C-3.3 °C89 %1015.6 hPa16.1 kmNNW (340°)11.1 km/hMostly Cloudy
5:54 AM-1.7 °C-2.8 °C92 %1016.3 hPa16.1 kmNNW (340°)13 km/hOvercast
6:51 AM-1 °C-3 °C86 %1016.9 hPa16.1 kmNNW (340°)13 km/hMostly Cloudy
6:54 AM-1.1 °C-2.8 °C88 %1016.9 hPa16.1 kmNNW (340°)14.8 km/hMostly Cloudy
7:54 AM-1.1 °C-2.8 °C88 %1017.6 hPa16.1 kmNorth (10°)11.1 km/hScattered Clouds
8:54 AM0.6 °C-3.9 °C72 %1018.6 hPa16.1 kmNorth (360°)13 km/hScattered Clouds
9:54 AM1.1 °C-3.9 °C70 %1019 hPa16.1 kmNorth (10°)11.1 km/hMostly Cloudy
10:54 AM1.7 °C-3.3 °C70 %1019.6 hPa16.1 kmNNE (30°)14.8 km/hMostly Cloudy
11:54 AM2.8 °C-2.8 °C67 %1019.3 hPa16.1 kmNE (40°)14.8 km/hScattered Clouds
12:54 PM3.3 °C-2.8 °C65 %1019.6 hPa16.1 kmENE (70°)9.3 km/hScattered Clouds
1:54 PM2.8 °C-2.8 °C67 %1020.7 hPa16.1 kmEast (80°)9.3 km/hMostly Cloudy
2:54 PM2.2 °C-2.8 °C70 %1021 hPa16.1 kmSE (140°)9.3 km/hMostly Cloudy
3:54 PM4.4 °C-2.2 °C63 %1021 hPa16.1 kmVariable7.4 km/hScattered Clouds
4:54 PM3.9 °C-2.8 °C62 %1021.7 hPa16.1 kmNNW (340°)11.1 km/hMostly Cloudy
5:54 PM2.8 °C-2.8 °C67 %1022.4 hPa16.1 kmESE (120°)9.3 km/hMostly Cloudy
6:13 PM2 °C-2 °C75 %1022.4 hPa16.1 kmSE (130°)11.1 km/hOvercast
6:54 PM2.2 °C-1.1 °C79 %1022.7 hPa16.1 kmSE (130°)7.4 km/hOvercast
7:54 PM2.2 °C-1.1 °C79 %1023.4 hPa16.1 kmSouth (170°)9.3 km/hOvercast
8:54 PM1.7 °C-1.1 °C82 %1023.7 hPa16.1 kmSouth (180°)7.4 km/hOvercast
9:54 PM2.2 °C-1.1 °C79 %1023.4 hPa16.1 kmSSW (200°)11.1 km/hOvercast
10:54 PM1.1 °C-1.7 °C82 %1023.7 hPa16.1 kmSE (140°)13 km/hMostly Cloudy
11:54 PM1.1 °C-1.7 °C82 %1024.4 hPa16.1 kmSSE (160°)11.1 km/hMostly Cloudy
Hourly data recorded from KBOS, located 0 kilometers away from Boston, Massachusetts







STORIES FROM OUR PARTNERS